User: anonymous   Login
Location: ????
(30.2663°N, 31.2484°E)
Time: 13:05:58
(UTC+00:00)
Language:

NOAA 16 DEB - Orbit

View from above orbital plane
View from above orbital plane
View from above satellite
View from above satellite

Ground track
Ground track

The orbit data is extracted from the following two-line orbital elements,

1 41153U 00055CL  24193.49718465  .00005576  00000-0  23502-2 0  9994
2 41153  98.7815 288.5450 0019843  63.3472 296.9737 14.25972860445624
Epoch (UTC): 11 July 2024 11:55:56
Eccentricity: 0.0019843
inclination: 98.7815°
perigee height: 791 km
apogee height: 819 km
right ascension of ascending node: 288.5450°
argument of perigee: 63.3472°
revolutions per day: 14.25972860
mean anomaly at epoch: 296.9737°
orbit number at epoch: 44562

The dashed part of the orbit path shows where the satellite is in the earth's shadow,  

DLR